Location: Praha
(50.0830°N, 14.4670°E)
Time: 22:22:25
(UTC+02:00)

ISS - Pass Details

Date: 12 May 2021
Orbit: 418 x 421 km, 51.6° (Epoch: 07 May)

Event Time Altitude Azimuth Distance (km) Brightness Sun altitude
Exits shadow 02:51:12 13° 283° (WNW) 1,316 -1.4 -17.4°
Maximum altitude 02:54:05 67° 5° (N) 461 -3.4 -17.2°
Drops below altitude 10° 02:57:27 10° 89° (E) 1,505 -0.6 -16.9°
Sets 02:59:34 0° 92° (E) 2,369 0.5 -16.7°
